Regional Weather Roundup
Issued by NWS

Home | Current Version | Previous Version | Text Only | Print | Product List | Glossary On
Versions: 1 2 3 4 5 6 7 8 9 10 11 12 13 14 15 16 17 18 19 20 21 22 23 24 25 26 27 28 29 30 31 32 33 34 35 36 37 38 39 40 41 42 43 44 45 46 47 48 49 50
000
ASUS44 KLUB 270801
RWRTX
WEST TEXAS WEATHER ROUNDUP
NATIONAL WEATHER SERVICE LUBBOCK TX
300 AM CDT MON APR 27 2015

NOTE: "FAIR" INDICATES FEW OR NO CLOUDS BELOW 12,000 FEET WITH NO
SIGNIFICANT WEATHER AND/OR OBSTRUCTIONS TO VISIBILITY.

TXZ004-006>008-010-012-014-016-OKZ002-270900-
TEXAS PANHANDLE/OKLAHOMA PANHANDLE

CITY           SKY/WX    TMP DP  RH WIND       PRES   REMARKS
AMARILLO       LGT RAIN  49  48  97 NE17      29.84F
BORGER         CLOUDY    48  46  93 NE21G26   29.88S FOG
CANADIAN       CLOUDY    50  48  92 NE12      29.85F
DALHART        LGT RAIN  47  45  93 NE21      29.91S FOG
DUMAS          CLOUDY    46  45  98 NE16      29.89F FOG
GUYMON         LGT RAIN  46  44  93 NE20G26   29.95R FOG
$$

TXZ026-029-035-045-048-270900-
SOUTHERN PANHANDLE/SOUTH PLAINS/ROLLING PLAINS

CITY           SKY/WX    TMP DP  RH WIND       PRES   REMARKS
CHILDRESS      HVY RAIN  53  51  93 NE18G28   29.78F FOG
SEMINOLE       PTCLDY    49  37  64 NW3       29.78S
LUBBOCK        CLOUDY    51  49  92 NE14      29.77F
$$

TXZ052-054-060>062-072-078-127-140-154-169-270900-
PERMIAN BASIN/CONCHO VALLEY/BIG COUNTRY/EDWARDS PLATEAU

CITY           SKY/WX    TMP DP  RH WIND       PRES   REMARKS
ABILENE        CLOUDY    59  54  83 N15G24    29.69F
BRADY          MOCLDY    61  57  88 N12       29.66R
JUNCTION       CLOUDY    62  57  83 CALM      29.69R
MIDLAND        MOCLDY    54  39  57 W7        29.76F
ODESSA         MOCLDY    55  33  43 NW3       29.78S
SAN ANGELO     PTCLDY    62  53  72 W9        29.70S
SWEETWATER     MOCLDY    56  56 100 NE7       29.75F
WINK           PTCLDY    48  30  49 NW7       29.76S
$$

TXZ055-058-074-075-080-082-270900-
FAR WEST/SOUTHWEST MOUNTAINS/TRANS PECOS

CITY           SKY/WX    TMP DP  RH WIND       PRES   REMARKS
ALPINE         MOCLDY    52  29  42 W5        29.91F
DRYDEN           N/A     66  31  27 NW9       29.76R
EL PASO        PTCLDY    55  36  48 W15G25    29.83F
FORT STOCKTON  MOCLDY    58  33  39 W9        29.80S
MARFA          PTCLDY    52  30  43 W14       29.88S
PECOS          MOCLDY    56  33  41 W12       29.77F
$$

TXZ014-016-019-021>030-083-270900
TEXAS TECH WEST TEXAS MESONET/TEXAS PANHANDLE/NORTHERN SOUTH PLAINS

CITY           SKY/WX    TMP DP  RH WIND       PRES   REMARKS
ABERNATHY 5ENE   N/A     50  48  93 NE12      29.79S
AMARILLO 9NNE    N/A     49  49  97 NE16      29.85F
AMARILLO 7SSE    N/A     49  48  96 N13       29.84F
AMHERST 1NE      N/A     49  47  93 N14       29.80F
BOOTLEG 11WNW    N/A     47  45  95 NE12      29.88R
CANADIAN 6E      N/A     48  46  93 N15       29.85R
CAPROCK CYN SP   N/A     51  50  95 N9        29.79R
CHILDRESS 2NNE LGT RAIN  53  51  94 N13       29.81R
CLARENDON 2WSW   N/A     51  48  91 NE21      29.78F
DIMMITT 2NE    LGT RAIN  48  47  94 N10       29.84R
FLOYDADA 2NNE    N/A     50  49  97 N10       29.77F
FRIONA 2NE       N/A     48  46  92 NE13      29.84F
GOODLETT 3W      N/A     53  50  91 NE17      29.77F
HART 3N          N/A     49  47  92 N8        29.82R
HEREFORD 2NW     N/A     49  47  93 NE12      29.83F
MCLEAN 1E      LGT RAIN  48  47  96 NE10      29.83R
MEMPHIS 1NE    LGT RAIN  52  51  95 NE10      29.82S
MULESHOE 2SSW    N/A     49  46  91 NE12      29.82F
OLTON 6S         N/A     50  47  90 N12       29.80F
PALO DURO SP     N/A     50  48  94 N12       29.83F
PAMPA 2E         N/A     46  46  99 N20       29.85S
PLAINVIEW 1S     N/A     51  49  93 N9        29.78F
SILVERTON 7ESE   N/A     50  49  96 N12       29.80S
TULIA 2ENE       N/A     49  48  95 NE13      29.80S
UMBARGER 3NNE    N/A     48  47  96 NE9       29.83F
$$

TXZ033>036-039>041-045>048-270900
TEXAS TECH WEST TEXAS MESONET/SOUTH PLAINS

CITY           SKY/WX    TMP DP  RH WIND       PRES   REMARKS
AIKEN 3WSW       N/A     50  49  94 NE15      29.79F
ANDREWS 2NE      N/A     53  37  55 W5        29.77F
ANTON 6SSW       N/A     49  47  93 NE13      29.78F
BROWNFIELD 2S    N/A     50  46  88 NE8       29.77F
GAIL 2ESE        N/A     54  49  85 N9        29.75F
LAMESA 2SE       N/A     55  46  73 W1        29.77S
LEVELLAND 4S     N/A     51  47  86 NE15      29.79S
LUBBOCK 3WNW     N/A     51  48  89 NE7       29.78F
MORTON 1ENE      N/A     49  46  88 NE12      29.80S
ODONNELL 1N      N/A     52  48  86 NE9       29.76F
PLAINS 3N        N/A     49  43  80 NE10      29.78S
RALLS 1SE        N/A     52  50  95 N10       29.77F
REESE CENTER     N/A     50  48  92 NE10      29.78F
SEAGRAVES 1SW    N/A     52  47  83 NE6       29.77S
SEMINOLE 2NNE    N/A     49  38  66 NW6       29.77S
SLATON 2NE       N/A     51  49  93 N5        29.77F
SNYDER 3E        N/A     53  52  95 N7        29.71F
SUNDOWN 8SW      N/A     49  46  89 NE8       29.79F
TAHOKA 3NNE      N/A     49  47  92 N6        29.77S
WOLFFORTH 6SSW   N/A     51  50  99 NE8       29.78S
$$

TXZ031-032-036>038-042>044-270900-
TEXAS TECH WEST TEXAS MESONET/ROLLING PLAINS

CITY           SKY/WX    TMP DP  RH WIND       PRES   REMARKS
ASPERMONT 3NE    N/A     56  55  95 NE9       29.70F
FLUVANNA 3WNW    N/A     53  49  86 N12       29.74S
GRAHAM 5SSW      N/A     52  48  86 NE3       29.76F
GUTHRIE 10WSW    N/A     55  53  94 N13       29.71R
HASKELL 1NW    LGT RAIN  57  56  96 NW10      29.74F
JAYTON 1SSE      N/A     56  53  90 N8        29.73R
KNOX CITY 3NW  LGT RAIN  57  54  88 N8        29.77R
LK A HENRY 1NW   N/A     54  52  93 NW3       29.76S
NORTHFIELD 1S    N/A     54  53  98 NE13      29.74F
ODELL 4ENE       N/A     54  53  94 N23       29.72F
PADUCAH 10SW     N/A     55  53  95 NE20G29   29.70F
POST 1NE         N/A     52  49  89 NW3       29.76S
RRING SPRGS 3N   N/A     52  52  98 N12       29.76F
SEYMOUR 3NW    LGT RAIN  60  57  89 W10       29.71R
SPUR 1W          N/A     54  51  87 N8        29.73R
WEINERT 2NNE     N/A     57  56  95 NW14      29.75F
WHITE RVR 6NE    N/A     52  50  91 N14       29.74F
$$

TXZ052-054-060>062-072-078-127-140-154-169-270900-
TEXAS TECH WEST TEXAS MESONET/PERMIAN BASIN/
CONCHO VALLEY/BIG COUNTRY/EDWARDS PLATEAU

CITY           SKY/WX    TMP DP  RH WIND       PRES   REMARKS
COYANOSA 2N      N/A     62  33  34 W8        29.78S
JUNCTION 1SSW    N/A     59  58  95 CALM      29.69R
MERTZON 3NNE     N/A     60  54  80 W6        29.72F
SAN ANGELO 7NW   N/A     60  51  73 NW3       29.68F
STRLNG CT 4WSW   N/A     60  51  72 W6        29.74F
ST LAWRNCE 5SW   N/A     59  48  67 N5        29.76S
SWEETWATR 11SW   N/A     54  53  96 NE12      29.73F
WALL 1E          N/A     60  52  74 W5        29.69R
$$

TXZ055-058-074-075-080-082-270900-
TEXAS TECH WEST TEXAS MESONET/FAR WEST/SOUTHWEST MOUNTAINS/TRANS PECOS

CITY           SKY/WX    TMP DP  RH WIND       PRES   REMARKS
PRSMN GAP BBNP   N/A     62  30  30 W6        29.81F
$$



USA.gov is the U.S. government's official web portal to all federal, state and local government web resources and services.